This is the latest recevied weather packets stored in our database for station/object CE1RLP-31. If no packets are shown the sender has not sent any weather packets the latest 10 day(s).
| Time | Temp. | Humidity | Pressure | Rain* | Wind** | Luminosity | Snow |
|---|---|---|---|---|---|---|---|
| 1777471650 | 11.67° C | 9% | 1098.5 hPa | - | - | - | - |
| 1777470750 | 11.11° C | 9% | 1098.5 hPa | - | - | - | - |
| 1777469850 | 10.56° C | 10% | 1098.5 hPa | - | - | - | - |
| 1777468949 | 10° C | 9% | 1098.4 hPa | - | - | - | - |
| 1777468049 | 8.89° C | 10% | 1098.3 hPa | - | - | - | - |
| 1777467149 | 8.33° C | 10% | 1098.2 hPa | - | - | - | - |
| 1777466249 | 7.78° C | 10% | 1098.1 hPa | - | - | - | - |
| 1777465349 | 7.22° C | 10% | 1098 hPa | - | - | - | - |
| 1777464449 | 6.67° C | 11% | 1097.9 hPa | - | - | - | - |
| 1777463549 | 6.11° C | 11% | 1097.9 hPa | - | - | - | - |
| 1777462649 | 5.56° C | 11% | 1097.7 hPa | - | - | - | - |
| 1777461749 | 5.56° C | 11% | 1097.6 hPa | - | - | - | - |
| 1777460849 | 5° C | 11% | 1097.5 hPa | - | - | - | - |
| 1777459949 | 5° C | 11% | 1097.4 hPa | - | - | - | - |
| 1777459049 | 5° C | 11% | 1097.3 hPa | - | - | - | - |
| 1777458148 | 5° C | 11% | 1097.3 hPa | - | - | - | - |
| 1777457248 | 5° C | 10% | 1097.2 hPa | - | - | - | - |
| 1777456350 | 5° C | 10% | 1099 hPa | - | - | - | - |
| 1777455450 | 5° C | 10% | 1097.1 hPa | - | - | - | - |
| 1777454550 | 5° C | 10% | 1097 hPa | - | - | - | - |
| 1777453650 | 5° C | 9% | 1096.9 hPa | - | - | - | - |
| 1777452750 | 4.44° C | 10% | 1097.1 hPa | - | - | - | - |
| 1777451849 | 4.44° C | 9% | 1097 hPa | - | - | - | - |
| 1777450949 | 5° C | 10% | 1097.1 hPa | - | - | - | - |
| 1777450049 | 5° C | 10% | 1097.2 hPa | - | - | - | - |
* Rain since midnight (hover to see other rain measurements)
** Current wind speed in m/s (hover to see current wind gust speed)